Location: El Diablo
(32.4667°N, 116.4500°W)
Time: 02:30:50
(UTC+00:00)

Cosmos 1666 - Pass Details

Date: 10 September 2024
Orbit: 414 x 432 km, 82.5° (Epoch: 06 October)

Event Time Altitude Azimuth Distance (km) Brightness Sun altitude
Rises 12:04:23 0° 343° (NNW) 2,377 6.1 -17.8°
Reaches altitude 10° 12:06:31 10° 335° (NNW) 1,503 5.0 -17.4°
Enters shadow 12:07:55 21° 320° (NW) 999 3.9 -17.1°
